Time,TemperatureF,DewpointF,PressureIn,WindDirection,WindDirectionDegrees,WindSpeedMPH,WindSpeedGustMPH,Humidity,HourlyPrecipIn,Conditions,Clouds,dailyrainin,SoftwareType,DateUTC
2013-03-04 00:00:00,28.2,21.0,29.71,SSE,154,0.0,1.0,74,0.00,,,0.00,WeatherCatV1.02B3,2013-03-04 05:00:00,
2013-03-04 00:05:00,28.2,21.0,29.71,SSE,154,1.0,6.0,74,0.00,,,0.00,WeatherCatV1.02B3,2013-03-04 05:05:00,
2013-03-04 00:10:00,28.2,21.3,29.71,SSE,154,1.0,3.0,75,0.00,,,0.00,WeatherCatV1.02B3,2013-03-04 05:10:00,
2013-03-04 00:15:00,28.2,21.0,29.71,SSE,153,0.0,3.0,74,0.00,,,0.00,WeatherCatV1.02B3,2013-03-04 05:15:00,
2013-03-04 00:20:00,28.2,21.3,29.71,SSE,154,2.0,3.0,75,0.00,,,0.00,WeatherCatV1.02B3,2013-03-04 05:20:00,
2013-03-04 00:25:00,28.2,21.0,29.71,SSE,153,4.0,6.0,74,0.00,,,0.00,WeatherCatV1.02B3,2013-03-04 05:25:00,
2013-03-04 00:30:00,28.3,21.1,29.71,SSE,153,0.0,4.0,74,0.00,,,0.00,WeatherCatV1.02B3,2013-03-04 05:30:00,
2013-03-04 00:35:00,28.4,21.2,29.71,SSE,153,0.0,4.0,74,0.00,,,0.00,WeatherCatV1.02B3,2013-03-04 05:35:00,
2013-03-04 00:40:00,28.4,20.9,29.72,SSE,153,0.0,3.0,73,0.00,,,0.00,WeatherCatV1.02B3,2013-03-04 05:40:00,
2013-03-04 00:45:00,28.5,21.0,29.72,SSE,153,0.0,6.0,73,0.00,,,0.00,WeatherCatV1.02B3,2013-03-04 05:45:00,
2013-03-04 00:50:00,28.4,20.9,29.71,SSE,154,1.0,4.0,73,0.00,,,0.00,WeatherCatV1.02B3,2013-03-04 05:50:00,
2013-03-04 00:55:00,28.5,20.6,29.71,SSE,153,3.0,4.0,72,0.00,,,0.00,WeatherCatV1.02B3,2013-03-04 05:55:00,
2013-03-04 01:00:00,28.4,20.5,29.72,SSE,153,1.0,7.0,72,0.00,,,0.00,WeatherCatV1.02B3,2013-03-04 06:00:00,
2013-03-04 01:05:00,28.4,20.5,29.71,SSE,153,5.0,6.0,72,0.00,,,0.00,WeatherCatV1.02B3,2013-03-04 06:05:00,
2013-03-04 01:10:00,28.4,20.5,29.72,SSE,154,1.0,7.0,72,0.00,,,0.00,WeatherCatV1.02B3,2013-03-04 06:10:00,
2013-03-04 01:15:00,28.4,20.5,29.72,SSE,153,3.0,3.0,72,0.00,,,0.00,WeatherCatV1.02B3,2013-03-04 06:15:00,
2013-03-04 01:20:00,28.4,20.2,29.72,SSE,153,3.0,4.0,71,0.00,,,0.00,WeatherCatV1.02B3,2013-03-04 06:20:00,
2013-03-04 01:25:00,28.3,20.5,29.72,SSE,154,1.0,6.0,72,0.00,,,0.00,WeatherCatV1.02B3,2013-03-04 06:25:00,
2013-03-04 01:30:00,28.3,20.5,29.72,SSE,153,1.0,2.0,72,0.00,,,0.00,WeatherCatV1.02B3,2013-03-04 06:30:00,
2013-03-04 01:35:00,28.3,20.5,29.72,SSE,154,1.0,5.0,72,0.00,,,0.00,WeatherCatV1.02B3,2013-03-04 06:35:00,
2013-03-04 01:40:00,28.2,20.4,29.72,SSE,153,1.0,8.0,72,0.00,,,0.00,WeatherCatV1.02B3,2013-03-04 06:40:00,
2013-03-04 01:45:00,28.2,20.4,29.72,SSE,153,1.0,6.0,72,0.00,,,0.00,WeatherCatV1.02B3,2013-03-04 06:45:00,
2013-03-04 01:50:00,28.1,20.3,29.72,SSE,153,1.0,6.0,72,0.00,,,0.00,WeatherCatV1.02B3,2013-03-04 06:50:00,
2013-03-04 01:55:00,28.1,20.3,29.72,SSE,153,0.0,5.0,72,0.00,,,0.00,WeatherCatV1.02B3,2013-03-04 06:55:00,
2013-03-04 02:00:00,28.0,20.2,29.71,SSE,153,7.0,9.0,72,0.00,,,0.00,WeatherCatV1.02B3,2013-03-04 07:00:00,
2013-03-04 02:05:00,27.9,20.1,29.71,SSE,153,5.0,8.0,72,0.00,,,0.00,WeatherCatV1.02B3,2013-03-04 07:05:00,
2013-03-04 02:10:00,27.9,20.4,29.71,SSE,154,0.0,5.0,73,0.00,,,0.00,WeatherCatV1.02B3,2013-03-04 07:10:00,
2013-03-04 02:15:00,27.8,20.0,29.71,SSE,154,2.0,7.0,72,0.00,,,0.00,WeatherCatV1.02B3,2013-03-04 07:15:00,
2013-03-04 02:20:00,27.8,20.0,29.71,SSE,153,5.0,5.0,72,0.00,,,0.00,WeatherCatV1.02B3,2013-03-04 07:20:00,
2013-03-04 02:25:00,27.7,20.2,29.71,SSE,153,2.0,5.0,73,0.00,,,0.00,WeatherCatV1.02B3,2013-03-04 07:25:00,
2013-03-04 02:30:00,27.7,20.2,29.71,SSE,153,2.0,4.0,73,0.00,,,0.00,WeatherCatV1.02B3,2013-03-04 07:30:00,
2013-03-04 02:35:00,27.7,20.2,29.71,SSE,154,2.0,7.0,73,0.00,,,0.00,WeatherCatV1.02B3,2013-03-04 07:35:00,
2013-03-04 02:40:00,27.7,20.2,29.71,SSE,153,0.0,4.0,73,0.00,,,0.00,WeatherCatV1.02B3,2013-03-04 07:40:00,
2013-03-04 02:45:00,27.7,20.2,29.71,SSE,153,3.0,9.0,73,0.00,,,0.00,WeatherCatV1.02B3,2013-03-04 07:45:00,
2013-03-04 02:50:00,27.6,20.1,29.71,SSE,153,4.0,6.0,73,0.00,,,0.00,WeatherCatV1.02B3,2013-03-04 07:50:00,
2013-03-04 02:55:00,27.6,19.8,29.72,SSE,153,2.0,6.0,72,0.00,,,0.00,WeatherCatV1.02B3,2013-03-04 07:55:00,
2013-03-04 03:00:00,27.6,20.1,29.72,SSE,153,4.0,4.0,73,0.00,,,0.00,WeatherCatV1.02B3,2013-03-04 08:00:00,
2013-03-04 03:05:00,27.6,20.1,29.72,SSE,153,1.0,6.0,73,0.00,,,0.00,WeatherCatV1.02B3,2013-03-04 08:05:00,
2013-03-04 03:10:00,27.5,20.0,29.72,SSE,153,0.0,5.0,73,0.00,,,0.00,WeatherCatV1.02B3,2013-03-04 08:10:00,
2013-03-04 03:15:00,27.5,20.0,29.72,SSE,154,3.0,4.0,73,0.00,,,0.00,WeatherCatV1.02B3,2013-03-04 08:15:00,
2013-03-04 03:20:00,27.5,20.0,29.72,SSE,153,2.0,2.0,73,0.00,,,0.00,WeatherCatV1.02B3,2013-03-04 08:20:00,
2013-03-04 03:25:00,27.5,20.0,29.72,SSE,153,3.0,6.0,73,0.00,,,0.00,WeatherCatV1.02B3,2013-03-04 08:25:00,
2013-03-04 03:30:00,27.4,19.9,29.72,SSE,153,2.0,6.0,73,0.00,,,0.00,WeatherCatV1.02B3,2013-03-04 08:30:00,
2013-03-04 03:35:00,27.4,20.2,29.72,SSE,154,0.0,2.0,74,0.00,,,0.00,WeatherCatV1.02B3,2013-03-04 08:35:00,
2013-03-04 03:40:00,27.4,20.2,29.72,SSE,153,3.0,3.0,74,0.00,,,0.00,WeatherCatV1.02B3,2013-03-04 08:40:00,
2013-03-04 03:45:00,27.4,20.2,29.73,SSE,153,0.0,4.0,74,0.00,,,0.00,WeatherCatV1.02B3,2013-03-04 08:45:00,
2013-03-04 03:50:00,27.4,20.2,29.72,SSE,153,0.0,5.0,74,0.00,,,0.00,WeatherCatV1.02B3,2013-03-04 08:50:00,
2013-03-04 03:55:00,27.4,19.9,29.73,SSE,154,3.0,8.0,73,0.00,,,0.00,WeatherCatV1.02B3,2013-03-04 08:55:00,
2013-03-04 04:00:00,27.4,20.2,29.73,SSE,153,1.0,7.0,74,0.00,,,0.00,WeatherCatV1.02B3,2013-03-04 09:00:00,
2013-03-04 04:05:00,27.4,20.2,29.73,SSE,153,2.0,6.0,74,0.00,,,0.00,WeatherCatV1.02B3,2013-03-04 09:05:00,
2013-03-04 04:10:00,27.4,20.2,29.73,SSE,153,9.0,9.0,74,0.00,,,0.00,WeatherCatV1.02B3,2013-03-04 09:10:00,
2013-03-04 04:15:00,27.4,20.5,29.73,SSE,153,6.0,8.0,75,0.00,,,0.00,WeatherCatV1.02B3,2013-03-04 09:15:00,
2013-03-04 04:20:00,27.4,20.2,29.73,SSE,153,4.0,9.0,74,0.00,,,0.00,WeatherCatV1.02B3,2013-03-04 09:20:00,
2013-03-04 04:25:00,27.5,20.6,29.73,SSE,153,0.0,4.0,75,0.00,,,0.00,WeatherCatV1.02B3,2013-03-04 09:25:00,
2013-03-04 04:30:00,27.5,20.6,29.73,SSE,153,4.0,5.0,75,0.00,,,0.00,WeatherCatV1.02B3,2013-03-04 09:30:00,
2013-03-04 04:35:00,27.5,20.6,29.73,SSE,153,1.0,2.0,75,0.00,,,0.00,WeatherCatV1.02B3,2013-03-04 09:35:00,
2013-03-04 04:40:00,27.5,20.6,29.74,SSE,154,2.0,4.0,75,0.00,,,0.00,WeatherCatV1.02B3,2013-03-04 09:40:00,
2013-03-04 04:45:00,27.5,20.6,29.74,SSE,153,2.0,2.0,75,0.00,,,0.00,WeatherCatV1.02B3,2013-03-04 09:45:00,
2013-03-04 04:50:00,27.5,20.3,29.74,SSE,154,0.0,7.0,74,0.00,,,0.00,WeatherCatV1.02B3,2013-03-04 09:50:00,
2013-03-04 04:55:00,27.5,20.6,29.74,SSE,154,0.0,2.0,75,0.00,,,0.00,WeatherCatV1.02B3,2013-03-04 09:55:00,
2013-03-04 05:00:00,27.5,20.3,29.74,SSE,153,1.0,3.0,74,0.00,,,0.00,WeatherCatV1.02B3,2013-03-04 10:00:00,
2013-03-04 05:05:00,27.5,20.6,29.74,SSE,153,0.0,5.0,75,0.00,,,0.00,WeatherCatV1.02B3,2013-03-04 10:05:00,
2013-03-04 05:10:00,27.5,20.6,29.74,SSE,153,1.0,9.0,75,0.00,,,0.00,WeatherCatV1.02B3,2013-03-04 10:10:00,
2013-03-04 05:15:00,27.5,20.3,29.74,SSE,153,2.0,5.0,74,0.00,,,0.00,WeatherCatV1.02B3,2013-03-04 10:15:00,
2013-03-04 05:20:00,27.5,20.6,29.74,SSE,153,3.0,5.0,75,0.00,,,0.00,WeatherCatV1.02B3,2013-03-04 10:20:00,
2013-03-04 05:25:00,27.4,20.2,29.74,SSE,153,3.0,7.0,74,0.00,,,0.00,WeatherCatV1.02B3,2013-03-04 10:25:00,
2013-03-04 05:30:00,27.4,20.5,29.74,SSE,153,0.0,6.0,75,0.00,,,0.00,WeatherCatV1.02B3,2013-03-04 10:30:00,
2013-03-04 05:35:00,27.3,20.4,29.74,SSE,154,2.0,2.0,75,0.00,,,0.00,WeatherCatV1.02B3,2013-03-04 10:35:00,
2013-03-04 05:40:00,27.2,20.3,29.74,SSE,154,3.0,6.0,75,0.00,,,0.00,WeatherCatV1.02B3,2013-03-04 10:40:00,
2013-03-04 05:45:00,27.2,20.7,29.74,SSE,153,2.0,10.0,76,0.00,,,0.00,WeatherCatV1.02B3,2013-03-04 10:45:00,
2013-03-04 05:50:00,27.1,20.6,29.74,SSE,154,6.0,6.0,76,0.00,,,0.00,WeatherCatV1.02B3,2013-03-04 10:50:00,
2013-03-04 05:55:00,27.1,20.6,29.74,SSE,153,1.0,6.0,76,0.00,,,0.00,WeatherCatV1.02B3,2013-03-04 10:55:00,
2013-03-04 06:00:00,27.1,20.6,29.74,SSE,154,3.0,10.0,76,0.00,,,0.00,WeatherCatV1.02B3,2013-03-04 11:00:00,
2013-03-04 06:05:00,27.0,20.5,29.74,SSE,153,2.0,7.0,76,0.00,,,0.00,WeatherCatV1.02B3,2013-03-04 11:05:00,
2013-03-04 06:10:00,27.0,20.5,29.74,SSE,153,1.0,6.0,76,0.00,,,0.00,WeatherCatV1.02B3,2013-03-04 11:10:00,
2013-03-04 06:15:00,27.0,20.5,29.74,SSE,154,1.0,10.0,76,0.00,,,0.00,WeatherCatV1.02B3,2013-03-04 11:15:00,
2013-03-04 06:20:00,27.0,20.5,29.74,SSE,153,0.0,8.0,76,0.00,,,0.00,WeatherCatV1.02B3,2013-03-04 11:20:00,
2013-03-04 06:25:00,26.9,20.4,29.74,SSE,154,3.0,3.0,76,0.00,,,0.00,WeatherCatV1.02B3,2013-03-04 11:25:00,
2013-03-04 06:30:00,27.0,20.5,29.75,SSE,153,3.0,6.0,76,0.00,,,0.00,WeatherCatV1.02B3,2013-03-04 11:30:00,
2013-03-04 06:35:00,26.9,20.4,29.75,SSE,153,7.0,7.0,76,0.00,,,0.00,WeatherCatV1.02B3,2013-03-04 11:35:00,
2013-03-04 06:40:00,26.9,20.4,29.75,SSE,153,3.0,8.0,76,0.00,,,0.00,WeatherCatV1.02B3,2013-03-04 11:40:00,
2013-03-04 06:45:00,27.0,20.5,29.75,SSE,153,1.0,7.0,76,0.00,,,0.00,WeatherCatV1.02B3,2013-03-04 11:45:00,
2013-03-04 06:50:00,27.1,20.6,29.75,SSE,153,2.0,5.0,76,0.00,,,0.00,WeatherCatV1.02B3,2013-03-04 11:50:00,
2013-03-04 06:55:00,27.2,20.7,29.75,SSE,153,1.0,4.0,76,0.00,,,0.00,WeatherCatV1.02B3,2013-03-04 11:55:00,
2013-03-04 07:00:00,27.3,20.8,29.75,SSE,154,5.0,6.0,76,0.00,,,0.00,WeatherCatV1.02B3,2013-03-04 12:00:00,
2013-03-04 07:05:00,27.6,21.0,29.75,SSE,153,0.0,6.0,76,0.00,,,0.00,WeatherCatV1.02B3,2013-03-04 12:05:00,
2013-03-04 07:10:00,27.9,21.0,29.75,SSE,155,1.0,6.0,75,0.00,,,0.00,WeatherCatV1.02B3,2013-03-04 12:10:00,
2013-03-04 07:15:00,28.2,21.3,29.75,SSE,155,4.0,5.0,75,0.00,,,0.00,WeatherCatV1.02B3,2013-03-04 12:15:00,
2013-03-04 07:20:00,28.5,21.3,29.75,SSE,155,0.0,6.0,74,0.00,,,0.00,WeatherCatV1.02B3,2013-03-04 12:20:00,
2013-03-04 07:25:00,28.9,21.4,29.75,SSE,155,1.0,7.0,73,0.00,,,0.00,WeatherCatV1.02B3,2013-03-04 12:25:00,
2013-03-04 07:30:00,29.0,21.4,29.75,SSE,155,1.0,4.0,73,0.00,,,0.00,WeatherCatV1.02B3,2013-03-04 12:30:00,
2013-03-04 07:35:00,29.0,21.8,29.75,SSE,155,5.0,5.0,74,0.00,,,0.00,WeatherCatV1.02B3,2013-03-04 12:35:00,
2013-03-04 07:40:00,29.8,22.2,29.76,SSE,155,2.0,5.0,73,0.00,,,0.00,WeatherCatV1.02B3,2013-03-04 12:40:00,
2013-03-04 07:45:00,30.6,22.7,29.76,SSE,155,1.0,3.0,72,0.00,,,0.00,WeatherCatV1.02B3,2013-03-04 12:45:00,
2013-03-04 07:50:00,31.3,22.7,29.76,SSE,155,1.0,9.0,70,0.00,,,0.00,WeatherCatV1.02B3,2013-03-04 12:50:00,
2013-03-04 07:55:00,32.0,23.0,29.76,SSE,155,1.0,9.0,69,0.00,,,0.00,WeatherCatV1.02B3,2013-03-04 12:55:00,
2013-03-04 08:00:00,32.1,22.8,29.75,SSE,155,8.0,11.0,68,0.00,,,0.00,WeatherCatV1.02B3,2013-03-04 13:00:00,
2013-03-04 08:05:00,31.9,22.9,29.76,SSE,155,2.0,7.0,69,0.00,,,0.00,WeatherCatV1.02B3,2013-03-04 13:05:00,
2013-03-04 08:10:00,32.0,23.0,29.76,SSE,155,5.0,10.0,69,0.00,,,0.00,WeatherCatV1.02B3,2013-03-04 13:10:00,
2013-03-04 08:15:00,31.5,22.9,29.76,SSE,155,2.0,5.0,70,0.00,,,0.00,WeatherCatV1.02B3,2013-03-04 13:15:00,
2013-03-04 08:20:00,32.0,23.3,29.76,SSE,155,0.0,4.0,70,0.00,,,0.00,WeatherCatV1.02B3,2013-03-04 13:20:00,
2013-03-04 08:25:00,32.6,23.6,29.76,SSE,155,2.0,5.0,69,0.00,,,0.00,WeatherCatV1.02B3,2013-03-04 13:25:00,
2013-03-04 08:30:00,32.6,23.2,29.76,SSE,155,1.0,4.0,68,0.00,,,0.00,WeatherCatV1.02B3,2013-03-04 13:30:00,
2013-03-04 08:35:00,33.1,23.7,29.76,SSE,155,1.0,5.0,68,0.00,,,0.00,WeatherCatV1.02B3,2013-03-04 13:35:00,
2013-03-04 08:40:00,34.0,24.6,29.75,SSE,155,3.0,7.0,68,0.00,,,0.00,WeatherCatV1.02B3,2013-03-04 13:40:00,
2013-03-04 08:45:00,33.6,23.5,29.75,SSE,155,2.0,8.0,66,0.00,,,0.00,WeatherCatV1.02B3,2013-03-04 13:45:00,
2013-03-04 08:50:00,32.7,23.0,29.75,SSE,155,6.0,7.0,67,0.00,,,0.00,WeatherCatV1.02B3,2013-03-04 13:50:00,
2013-03-04 08:55:00,32.2,23.2,29.75,SSE,155,3.0,7.0,69,0.00,,,0.00,WeatherCatV1.02B3,2013-03-04 13:55:00,
2013-03-04 09:00:00,32.4,23.0,29.75,SSE,155,1.0,9.0,68,0.00,,,0.00,WeatherCatV1.02B3,2013-03-04 14:00:00,
2013-03-04 09:05:00,32.7,23.0,29.75,SSE,155,2.0,12.0,67,0.00,,,0.00,WeatherCatV1.02B3,2013-03-04 14:05:00,
2013-03-04 09:10:00,33.3,24.2,29.74,SSE,155,5.0,5.0,69,0.00,,,0.00,WeatherCatV1.02B3,2013-03-04 14:10:00,
2013-03-04 09:15:00,32.9,23.2,29.75,SSE,155,2.0,4.0,67,0.00,,,0.00,WeatherCatV1.02B3,2013-03-04 14:15:00,
2013-03-04 09:20:00,32.4,23.0,29.75,SSE,155,1.0,5.0,68,0.00,,,0.00,WeatherCatV1.02B3,2013-03-04 14:20:00,
2013-03-04 09:25:00,33.0,24.0,29.75,SSE,155,2.0,6.0,69,0.00,,,0.00,WeatherCatV1.02B3,2013-03-04 14:25:00,
2013-03-04 09:30:00,33.6,23.8,29.75,SSE,155,0.0,8.0,67,0.00,,,0.00,WeatherCatV1.02B3,2013-03-04 14:30:00,
2013-03-04 09:35:00,34.6,24.1,29.75,SSE,155,2.0,14.0,65,0.00,,,0.00,WeatherCatV1.02B3,2013-03-04 14:35:00,
2013-03-04 09:40:00,35.3,24.4,29.75,SSE,155,2.0,8.0,64,0.00,,,0.00,WeatherCatV1.02B3,2013-03-04 14:40:00,
2013-03-04 09:45:00,35.5,24.5,29.75,SSE,155,8.0,10.0,64,0.00,,,0.00,WeatherCatV1.02B3,2013-03-04 14:45:00,
2013-03-04 09:50:00,35.6,24.6,29.75,SSE,155,3.0,9.0,64,0.00,,,0.00,WeatherCatV1.02B3,2013-03-04 14:50:00,
2013-03-04 09:55:00,35.7,24.0,29.75,SSE,155,2.0,6.0,62,0.00,,,0.00,WeatherCatV1.02B3,2013-03-04 14:55:00,
2013-03-04 10:00:00,36.0,24.3,29.75,SSE,155,2.0,5.0,62,0.00,,,0.00,WeatherCatV1.02B3,2013-03-04 15:00:00,
2013-03-04 10:05:00,36.1,24.4,29.75,SSE,155,2.0,7.0,62,0.00,,,0.00,WeatherCatV1.02B3,2013-03-04 15:05:00,
2013-03-04 10:10:00,36.2,24.8,29.75,SSE,155,2.0,2.0,63,0.00,,,0.00,WeatherCatV1.02B3,2013-03-04 15:10:00,
2013-03-04 10:15:00,36.9,25.1,29.75,SSE,155,11.0,11.0,62,0.00,,,0.00,WeatherCatV1.02B3,2013-03-04 15:15:00,
2013-03-04 10:20:00,36.7,23.7,29.74,SSE,155,2.0,6.0,59,0.00,,,0.00,WeatherCatV1.02B3,2013-03-04 15:20:00,
2013-03-04 10:25:00,36.6,24.0,29.74,SSE,155,5.0,11.0,60,0.00,,,0.00,WeatherCatV1.02B3,2013-03-04 15:25:00,
2013-03-04 10:30:00,36.7,23.7,29.74,SSE,155,1.0,13.0,59,0.00,,,0.00,WeatherCatV1.02B3,2013-03-04 15:30:00,
2013-03-04 10:35:00,36.8,25.0,29.74,SSE,155,5.0,6.0,62,0.00,,,0.00,WeatherCatV1.02B3,2013-03-04 15:35:00,
2013-03-04 10:40:00,37.2,24.2,29.74,SSE,155,0.0,7.0,59,0.00,,,0.00,WeatherCatV1.02B3,2013-03-04 15:40:00,
2013-03-04 10:45:00,37.5,24.5,29.74,SSE,155,9.0,9.0,59,0.00,,,0.00,WeatherCatV1.02B3,2013-03-04 15:45:00,
2013-03-04 10:50:00,37.5,24.5,29.74,SSE,155,7.0,11.0,59,0.00,,,0.00,WeatherCatV1.02B3,2013-03-04 15:50:00,
2013-03-04 10:55:00,37.3,24.3,29.74,SSE,155,2.0,6.0,59,0.00,,,0.00,WeatherCatV1.02B3,2013-03-04 15:55:00,
2013-03-04 11:00:00,38.0,25.0,29.74,SSE,155,2.0,5.0,59,0.00,,,0.00,WeatherCatV1.02B3,2013-03-04 16:00:00,
2013-03-04 11:05:00,38.3,24.8,29.74,SSE,155,2.0,8.0,58,0.00,,,0.00,WeatherCatV1.02B3,2013-03-04 16:05:00,
2013-03-04 11:10:00,38.5,24.6,29.73,SSE,155,1.0,8.0,57,0.00,,,0.00,WeatherCatV1.02B3,2013-03-04 16:10:00,
2013-03-04 11:15:00,38.9,25.0,29.73,SSE,155,5.0,5.0,57,0.00,,,0.00,WeatherCatV1.02B3,2013-03-04 16:15:00,
2013-03-04 11:20:00,38.9,25.0,29.73,SSE,155,4.0,4.0,57,0.00,,,0.00,WeatherCatV1.02B3,2013-03-04 16:20:00,
2013-03-04 11:25:00,39.3,25.4,29.73,SSE,155,6.0,12.0,57,0.00,,,0.00,WeatherCatV1.02B3,2013-03-04 16:25:00,
2013-03-04 11:30:00,39.1,24.3,29.73,SSE,155,4.0,9.0,55,0.00,,,0.00,WeatherCatV1.02B3,2013-03-04 16:30:00,
2013-03-04 11:35:00,38.5,24.2,29.73,SSE,155,1.0,7.0,56,0.00,,,0.00,WeatherCatV1.02B3,2013-03-04 16:35:00,
2013-03-04 11:40:00,38.9,25.0,29.73,SSE,155,3.0,9.0,57,0.00,,,0.00,WeatherCatV1.02B3,2013-03-04 16:40:00,
2013-03-04 11:45:00,39.6,25.6,29.73,SSE,155,6.0,6.0,57,0.00,,,0.00,WeatherCatV1.02B3,2013-03-04 16:45:00,
2013-03-04 11:50:00,39.9,25.5,29.73,SSE,154,7.0,7.0,56,0.00,,,0.00,WeatherCatV1.02B3,2013-03-04 16:50:00,
2013-03-04 11:55:00,40.0,25.6,29.73,SSE,154,4.0,7.0,56,0.00,,,0.00,WeatherCatV1.02B3,2013-03-04 16:55:00,
2013-03-04 12:00:00,39.9,24.6,29.73,SSE,153,5.0,10.0,54,0.00,,,0.00,WeatherCatV1.02B3,2013-03-04 17:00:00,
2013-03-04 12:05:00,39.7,24.9,29.73,SSE,154,4.0,10.0,55,0.00,,,0.00,WeatherCatV1.02B3,2013-03-04 17:05:00,
2013-03-04 12:10:00,39.4,24.6,29.73,SSE,153,3.0,7.0,55,0.00,,,0.00,WeatherCatV1.02B3,2013-03-04 17:10:00,
2013-03-04 12:15:00,39.1,23.9,29.73,SSE,153,1.0,13.0,54,0.00,,,0.00,WeatherCatV1.02B3,2013-03-04 17:15:00,
2013-03-04 12:20:00,38.9,23.7,29.73,SSE,154,2.0,9.0,54,0.00,,,0.00,WeatherCatV1.02B3,2013-03-04 17:20:00,
2013-03-04 12:25:00,38.7,24.4,29.73,SSE,155,7.0,7.0,56,0.00,,,0.00,WeatherCatV1.02B3,2013-03-04 17:25:00,
2013-03-04 12:30:00,38.7,24.8,29.72,SSE,155,2.0,8.0,57,0.00,,,0.00,WeatherCatV1.02B3,2013-03-04 17:30:00,
2013-03-04 12:35:00,38.4,23.7,29.72,SSE,155,7.0,11.0,55,0.00,,,0.00,WeatherCatV1.02B3,2013-03-04 17:35:00,
2013-03-04 12:40:00,38.4,23.7,29.72,SSE,155,4.0,6.0,55,0.00,,,0.00,WeatherCatV1.02B3,2013-03-04 17:40:00,
2013-03-04 12:45:00,38.7,23.9,29.72,SSE,155,2.0,9.0,55,0.00,,,0.00,WeatherCatV1.02B3,2013-03-04 17:45:00,
2013-03-04 12:50:00,39.3,25.4,29.72,SSE,155,6.0,6.0,57,0.00,,,0.00,WeatherCatV1.02B3,2013-03-04 17:50:00,
2013-03-04 12:55:00,40.2,24.9,29.71,SSE,155,6.0,6.0,54,0.00,,,0.00,WeatherCatV1.02B3,2013-03-04 17:55:00,
2013-03-04 13:00:00,40.5,24.7,29.71,SSE,155,7.0,7.0,53,0.00,,,0.00,WeatherCatV1.02B3,2013-03-04 18:00:00,
2013-03-04 13:05:00,40.2,24.0,29.71,SSE,155,2.0,15.0,52,0.00,,,0.00,WeatherCatV1.02B3,2013-03-04 18:05:00,
2013-03-04 13:10:00,39.8,23.6,29.71,SSE,155,2.0,10.0,52,0.00,,,0.00,WeatherCatV1.02B3,2013-03-04 18:10:00,
2013-03-04 13:15:00,40.8,25.9,29.71,SSE,155,8.0,9.0,55,0.00,,,0.00,WeatherCatV1.02B3,2013-03-04 18:15:00,
2013-03-04 13:20:00,40.7,24.5,29.71,SSE,155,4.0,8.0,52,0.00,,,0.00,WeatherCatV1.02B3,2013-03-04 18:20:00,
2013-03-04 13:25:00,40.0,23.8,29.71,SSE,155,4.0,9.0,52,0.00,,,0.00,WeatherCatV1.02B3,2013-03-04 18:25:00,
2013-03-04 13:29:00,39.9,24.2,29.71,SSE,155,1.0,5.0,53,0.00,,,0.00,WeatherCatV1.02B3,2013-03-04 18:29:00,
2013-03-04 13:34:00,40.0,24.7,29.71,SSE,155,4.0,5.0,54,0.00,,,0.00,WeatherCatV1.02B3,2013-03-04 18:34:00,
2013-03-04 13:39:00,40.1,23.9,29.71,SSE,154,3.0,13.0,52,0.00,,,0.00,WeatherCatV1.02B3,2013-03-04 18:39:00,
2013-03-04 13:44:00,39.9,23.7,29.71,SSE,153,5.0,11.0,52,0.00,,,0.00,WeatherCatV1.02B3,2013-03-04 18:44:00,
2013-03-04 13:49:00,39.7,24.4,29.71,SSE,155,2.0,5.0,54,0.00,,,0.00,WeatherCatV1.02B3,2013-03-04 18:49:00,
2013-03-04 13:54:00,39.6,23.4,29.72,SSE,154,4.0,8.0,52,0.00,,,0.00,WeatherCatV1.02B3,2013-03-04 18:54:00,
2013-03-04 13:59:00,39.5,23.8,29.71,SSE,155,2.0,12.0,53,0.00,,,0.00,WeatherCatV1.02B3,2013-03-04 18:59:00,
2013-03-04 14:04:00,39.5,23.8,29.71,SSE,155,1.0,6.0,53,0.00,,,0.00,WeatherCatV1.02B3,2013-03-04 19:04:00,
2013-03-04 14:09:00,40.0,24.7,29.71,SSE,155,6.0,7.0,54,0.00,,,0.00,WeatherCatV1.02B3,2013-03-04 19:09:00,
2013-03-04 14:14:00,40.1,23.9,29.71,SSE,155,4.0,6.0,52,0.00,,,0.00,WeatherCatV1.02B3,2013-03-04 19:14:00,
2013-03-04 14:19:00,40.2,23.5,29.71,SSE,155,4.0,13.0,51,0.00,,,0.00,WeatherCatV1.02B3,2013-03-04 19:19:00,
2013-03-04 14:24:00,39.9,23.7,29.71,SSE,155,9.0,9.0,52,0.00,,,0.00,WeatherCatV1.02B3,2013-03-04 19:24:00,
2013-03-04 14:29:00,39.6,23.9,29.71,SSE,155,6.0,8.0,53,0.00,,,0.00,WeatherCatV1.02B3,2013-03-04 19:29:00,
2013-03-04 14:34:00,39.7,24.4,29.72,SSE,155,6.0,8.0,54,0.00,,,0.00,WeatherCatV1.02B3,2013-03-04 19:34:00,
2013-03-04 14:39:00,40.2,24.0,29.71,SSE,158,18.0,18.0,52,0.00,,,0.00,WeatherCatV1.02B3,2013-03-04 19:39:00,
2013-03-04 14:44:00,39.9,23.7,29.72,SSE,156,2.0,5.0,52,0.00,,,0.00,WeatherCatV1.02B3,2013-03-04 19:44:00,
2013-03-04 14:49:00,40.0,23.8,29.71,SSE,156,3.0,8.0,52,0.00,,,0.00,WeatherCatV1.02B3,2013-03-04 19:49:00,
2013-03-04 14:54:00,40.1,24.4,29.71,SSE,156,2.0,11.0,53,0.00,,,0.00,WeatherCatV1.02B3,2013-03-04 19:54:00,
2013-03-04 14:59:00,40.3,24.1,29.71,SSE,156,1.0,11.0,52,0.00,,,0.00,WeatherCatV1.02B3,2013-03-04 19:59:00,
2013-03-04 15:04:00,40.0,23.8,29.71,SSE,156,1.0,6.0,52,0.00,,,0.00,WeatherCatV1.02B3,2013-03-04 20:04:00,
2013-03-04 15:09:00,39.6,23.4,29.71,SSE,154,2.0,10.0,52,0.00,,,0.00,WeatherCatV1.02B3,2013-03-04 20:09:00,
2013-03-04 15:14:00,39.3,23.2,29.71,SSE,155,11.0,11.0,52,0.00,,,0.00,WeatherCatV1.02B3,2013-03-04 20:14:00,
2013-03-04 15:19:00,39.0,23.3,29.71,SSE,153,2.0,11.0,53,0.00,,,0.00,WeatherCatV1.02B3,2013-03-04 20:19:00,
2013-03-04 15:24:00,39.0,23.3,29.71,SSE,154,3.0,8.0,53,0.00,,,0.00,WeatherCatV1.02B3,2013-03-04 20:24:00,
2013-03-04 15:29:00,39.2,23.5,29.71,SSE,155,6.0,10.0,53,0.00,,,0.00,WeatherCatV1.02B3,2013-03-04 20:29:00,
2013-03-04 15:34:00,39.4,23.3,29.71,SSE,153,6.0,13.0,52,0.00,,,0.00,WeatherCatV1.02B3,2013-03-04 20:34:00,
2013-03-04 15:39:00,39.3,23.6,29.72,SSE,153,5.0,8.0,53,0.00,,,0.00,WeatherCatV1.02B3,2013-03-04 20:39:00,
2013-03-04 15:44:00,39.4,23.7,29.71,SSE,153,7.0,8.0,53,0.00,,,0.00,WeatherCatV1.02B3,2013-03-04 20:44:00,
2013-03-04 15:49:00,39.4,23.3,29.72,SSE,155,3.0,10.0,52,0.00,,,0.00,WeatherCatV1.02B3,2013-03-04 20:49:00,
2013-03-04 15:54:00,39.3,23.2,29.72,SSE,155,5.0,6.0,52,0.00,,,0.00,WeatherCatV1.02B3,2013-03-04 20:54:00,
2013-03-04 15:59:00,39.0,22.9,29.72,SSE,155,3.0,12.0,52,0.00,,,0.00,WeatherCatV1.02B3,2013-03-04 20:59:00,
2013-03-04 16:04:00,38.7,22.6,29.72,SSE,153,3.0,9.0,52,0.00,,,0.00,WeatherCatV1.02B3,2013-03-04 21:04:00,
2013-03-04 16:09:00,38.7,23.1,29.72,SSE,153,0.0,9.0,53,0.00,,,0.00,WeatherCatV1.02B3,2013-03-04 21:09:00,
2013-03-04 16:14:00,38.9,23.7,29.72,SSE,153,0.0,6.0,54,0.00,,,0.00,WeatherCatV1.02B3,2013-03-04 21:14:00,
2013-03-04 16:19:00,38.8,23.2,29.72,SSE,153,7.0,11.0,53,0.00,,,0.00,WeatherCatV1.02B3,2013-03-04 21:19:00,
2013-03-04 16:24:00,38.5,23.3,29.73,SSE,155,2.0,7.0,54,0.00,,,0.00,WeatherCatV1.02B3,2013-03-04 21:24:00,
2013-03-04 16:29:00,38.1,22.9,29.73,SSE,155,4.0,7.0,54,0.00,,,0.00,WeatherCatV1.02B3,2013-03-04 21:29:00,
2013-03-04 16:34:00,37.9,22.8,29.73,SSE,155,5.0,8.0,54,0.00,,,0.00,WeatherCatV1.02B3,2013-03-04 21:34:00,
2013-03-04 16:39:00,37.7,23.0,29.73,SSE,155,8.0,9.0,55,0.00,,,0.00,WeatherCatV1.02B3,2013-03-04 21:39:00,
2013-03-04 16:44:00,37.6,23.3,29.73,SSE,155,3.0,7.0,56,0.00,,,0.00,WeatherCatV1.02B3,2013-03-04 21:44:00,
2013-03-04 16:49:00,37.4,23.2,29.73,SSE,154,2.0,5.0,56,0.00,,,0.00,WeatherCatV1.02B3,2013-03-04 21:49:00,
2013-03-04 16:54:00,37.1,22.9,29.73,SSE,152,1.0,7.0,56,0.00,,,0.00,WeatherCatV1.02B3,2013-03-04 21:54:00,
2013-03-04 16:59:00,36.8,22.6,29.74,SSE,150,2.0,7.0,56,0.00,,,0.00,WeatherCatV1.02B3,2013-03-04 21:59:00,
2013-03-04 17:04:00,36.5,22.7,29.74,SSE,152,5.0,8.0,57,0.00,,,0.00,WeatherCatV1.02B3,2013-03-04 22:04:00,
2013-03-04 17:09:00,36.2,22.9,29.74,SSE,153,2.0,5.0,58,0.00,,,0.00,WeatherCatV1.02B3,2013-03-04 22:09:00,
2013-03-04 17:14:00,35.9,22.6,29.74,SSE,155,3.0,12.0,58,0.00,,,0.00,WeatherCatV1.02B3,2013-03-04 22:14:00,
2013-03-04 17:19:00,35.7,22.4,29.75,SSE,155,4.0,9.0,58,0.00,,,0.00,WeatherCatV1.02B3,2013-03-04 22:19:00,
2013-03-04 17:24:00,35.4,22.1,29.75,SSE,155,5.0,9.0,58,0.00,,,0.00,WeatherCatV1.02B3,2013-03-04 22:24:00,
2013-03-04 17:29:00,35.2,22.7,29.75,SSE,155,0.0,5.0,60,0.00,,,0.00,WeatherCatV1.02B3,2013-03-04 22:29:00,
2013-03-04 17:34:00,34.9,22.4,29.75,SSE,155,8.0,11.0,60,0.00,,,0.00,WeatherCatV1.02B3,2013-03-04 22:34:00,
2013-03-04 17:39:00,34.7,22.6,29.76,SSE,153,2.0,11.0,61,0.00,,,0.00,WeatherCatV1.02B3,2013-03-04 22:39:00,
2013-03-04 17:44:00,34.4,22.0,29.76,SSE,153,3.0,16.0,60,0.00,,,0.00,WeatherCatV1.02B3,2013-03-04 22:44:00,
2013-03-04 17:49:00,34.1,22.1,29.76,SSE,153,0.0,9.0,61,0.00,,,0.00,WeatherCatV1.02B3,2013-03-04 22:49:00,
2013-03-04 17:54:00,33.9,22.3,29.77,SSE,153,6.0,11.0,62,0.00,,,0.00,WeatherCatV1.02B3,2013-03-04 22:54:00,
2013-03-04 17:59:00,33.6,22.0,29.77,SSE,153,5.0,9.0,62,0.00,,,0.00,WeatherCatV1.02B3,2013-03-04 22:59:00,
2013-03-04 18:04:00,33.5,21.9,29.77,SSE,153,6.0,13.0,62,0.00,,,0.00,WeatherCatV1.02B3,2013-03-04 23:04:00,
2013-03-04 18:09:00,33.3,22.1,29.77,SSE,153,3.0,7.0,63,0.00,,,0.00,WeatherCatV1.02B3,2013-03-04 23:09:00,
2013-03-04 18:14:00,33.1,21.9,29.77,SSE,153,1.0,4.0,63,0.00,,,0.00,WeatherCatV1.02B3,2013-03-04 23:14:00,
2013-03-04 18:19:00,33.1,21.9,29.78,SSE,153,7.0,9.0,63,0.00,,,0.00,WeatherCatV1.02B3,2013-03-04 23:19:00,
2013-03-04 18:24:00,32.9,21.7,29.78,SSE,153,5.0,5.0,63,0.00,,,0.00,WeatherCatV1.02B3,2013-03-04 23:24:00,
2013-03-04 18:29:00,32.8,21.6,29.78,SSE,153,4.0,14.0,63,0.00,,,0.00,WeatherCatV1.02B3,2013-03-04 23:29:00,
2013-03-04 18:34:00,32.7,21.9,29.78,SSE,153,6.0,6.0,64,0.00,,,0.00,WeatherCatV1.02B3,2013-03-04 23:34:00,
2013-03-04 18:39:00,32.6,21.8,29.78,SSE,153,0.0,5.0,64,0.00,,,0.00,WeatherCatV1.02B3,2013-03-04 23:39:00,
2013-03-04 18:44:00,32.4,22.0,29.79,SSE,153,1.0,7.0,65,0.00,,,0.00,WeatherCatV1.02B3,2013-03-04 23:44:00,
2013-03-04 18:49:00,32.3,21.9,29.79,SSE,153,0.0,4.0,65,0.00,,,0.00,WeatherCatV1.02B3,2013-03-04 23:49:00,
2013-03-04 18:54:00,32.1,21.7,29.79,SSE,153,0.0,9.0,65,0.00,,,0.00,WeatherCatV1.02B3,2013-03-04 23:54:00,
2013-03-04 18:59:00,32.0,21.9,29.79,SSE,153,2.0,10.0,66,0.00,,,0.00,WeatherCatV1.02B3,2013-03-04 23:59:00,
2013-03-04 19:04:00,31.9,21.5,29.79,SSE,153,1.0,7.0,65,0.00,,,0.00,WeatherCatV1.02B3,2013-03-05 00:04:00,
2013-03-04 19:09:00,31.9,21.9,29.79,SSE,153,2.0,8.0,66,0.00,,,0.00,WeatherCatV1.02B3,2013-03-05 00:09:00,
2013-03-04 19:14:00,31.9,21.9,29.79,SSE,153,6.0,6.0,66,0.00,,,0.00,WeatherCatV1.02B3,2013-03-05 00:14:00,
2013-03-04 19:19:00,31.8,21.8,29.79,SSE,153,2.0,6.0,66,0.00,,,0.00,WeatherCatV1.02B3,2013-03-05 00:19:00,
2013-03-04 19:24:00,31.8,21.8,29.80,SSE,153,1.0,4.0,66,0.00,,,0.00,WeatherCatV1.02B3,2013-03-05 00:24:00,
2013-03-04 19:29:00,31.7,21.7,29.79,SSE,153,4.0,11.0,66,0.00,,,0.00,WeatherCatV1.02B3,2013-03-05 00:29:00,
2013-03-04 19:34:00,31.7,21.7,29.80,SSE,153,5.0,7.0,66,0.00,,,0.00,WeatherCatV1.02B3,2013-03-05 00:34:00,
2013-03-04 19:39:00,31.6,21.9,29.80,SSE,155,2.0,2.0,67,0.00,,,0.00,WeatherCatV1.02B3,2013-03-05 00:39:00,
2013-03-04 19:44:00,31.6,21.6,29.80,SSE,153,3.0,9.0,66,0.00,,,0.00,WeatherCatV1.02B3,2013-03-05 00:44:00,
2013-03-04 19:49:00,31.6,21.6,29.80,SSE,153,2.0,7.0,66,0.00,,,0.00,WeatherCatV1.02B3,2013-03-05 00:49:00,
2013-03-04 19:54:00,31.5,21.8,29.80,SSE,153,0.0,4.0,67,0.00,,,0.00,WeatherCatV1.02B3,2013-03-05 00:54:00,
2013-03-04 19:59:00,31.4,21.4,29.81,SSE,155,4.0,17.0,66,0.00,,,0.00,WeatherCatV1.02B3,2013-03-05 00:59:00,
2013-03-04 20:04:00,31.4,21.4,29.81,SSE,155,2.0,12.0,66,0.00,,,0.00,WeatherCatV1.02B3,2013-03-05 01:04:00,
2013-03-04 20:09:00,31.3,21.3,29.81,SSE,155,2.0,6.0,66,0.00,,,0.00,WeatherCatV1.02B3,2013-03-05 01:09:00,
2013-03-04 20:14:00,31.2,21.5,29.82,SSE,155,0.0,4.0,67,0.00,,,0.00,WeatherCatV1.02B3,2013-03-05 01:14:00,
2013-03-04 20:19:00,31.0,21.7,29.82,SSE,155,0.0,4.0,68,0.00,,,0.00,WeatherCatV1.02B3,2013-03-05 01:19:00,
2013-03-04 20:24:00,30.9,21.6,29.82,SSE,155,1.0,9.0,68,0.00,,,0.00,WeatherCatV1.02B3,2013-03-05 01:24:00,
2013-03-04 20:29:00,30.9,21.6,29.82,SSE,155,2.0,7.0,68,0.00,,,0.00,WeatherCatV1.02B3,2013-03-05 01:29:00,
2013-03-04 20:34:00,30.8,21.5,29.82,SSE,153,2.0,10.0,68,0.00,,,0.00,WeatherCatV1.02B3,2013-03-05 01:34:00,
2013-03-04 20:39:00,30.8,21.5,29.82,SSE,154,5.0,8.0,68,0.00,,,0.00,WeatherCatV1.02B3,2013-03-05 01:39:00,
2013-03-04 20:44:00,30.8,21.9,29.82,SSE,153,3.0,6.0,69,0.00,,,0.00,WeatherCatV1.02B3,2013-03-05 01:44:00,
2013-03-04 20:49:00,30.7,21.4,29.82,SSE,153,7.0,7.0,68,0.00,,,0.00,WeatherCatV1.02B3,2013-03-05 01:49:00,
2013-03-04 20:54:00,30.6,21.7,29.82,SSE,153,1.0,8.0,69,0.00,,,0.00,WeatherCatV1.02B3,2013-03-05 01:54:00,
2013-03-04 20:59:00,30.5,21.6,29.82,SSE,153,2.0,6.0,69,0.00,,,0.00,WeatherCatV1.02B3,2013-03-05 01:59:00,
2013-03-04 21:04:00,30.6,21.7,29.82,SSE,155,5.0,10.0,69,0.00,,,0.00,WeatherCatV1.02B3,2013-03-05 02:04:00,
2013-03-04 21:09:00,30.5,21.6,29.82,SSE,155,2.0,9.0,69,0.00,,,0.00,WeatherCatV1.02B3,2013-03-05 02:09:00,
2013-03-04 21:14:00,30.5,21.9,29.82,SSE,155,0.0,5.0,70,0.00,,,0.00,WeatherCatV1.02B3,2013-03-05 02:14:00,
2013-03-04 21:19:00,30.4,21.8,29.81,SSE,155,2.0,5.0,70,0.00,,,0.00,WeatherCatV1.02B3,2013-03-05 02:19:00,
2013-03-04 21:24:00,30.3,21.7,29.82,SSE,155,2.0,6.0,70,0.00,,,0.00,WeatherCatV1.02B3,2013-03-05 02:24:00,
2013-03-04 21:29:00,30.3,22.0,29.82,SSE,155,0.0,3.0,71,0.00,,,0.00,WeatherCatV1.02B3,2013-03-05 02:29:00,
2013-03-04 21:34:00,30.2,21.9,29.82,SSE,155,2.0,8.0,71,0.00,,,0.00,WeatherCatV1.02B3,2013-03-05 02:34:00,
2013-03-04 21:39:00,30.2,21.9,29.82,SSE,155,0.0,3.0,71,0.00,,,0.00,WeatherCatV1.02B3,2013-03-05 02:39:00,
2013-03-04 21:44:00,30.2,21.9,29.82,SSE,155,4.0,8.0,71,0.00,,,0.00,WeatherCatV1.02B3,2013-03-05 02:44:00,
2013-03-04 21:49:00,30.2,21.9,29.82,SSE,155,1.0,6.0,71,0.00,,,0.00,WeatherCatV1.02B3,2013-03-05 02:49:00,
2013-03-04 21:54:00,30.2,21.9,29.82,SSE,155,0.0,4.0,71,0.00,,,0.00,WeatherCatV1.02B3,2013-03-05 02:54:00,
2013-03-04 21:59:00,30.1,22.2,29.82,SSE,155,1.0,2.0,72,0.00,,,0.00,WeatherCatV1.02B3,2013-03-05 02:59:00,
2013-03-04 22:04:00,30.1,22.2,29.82,SSE,155,1.0,5.0,72,0.00,,,0.00,WeatherCatV1.02B3,2013-03-05 03:04:00,
2013-03-04 22:09:00,30.1,22.2,29.82,SSE,155,1.0,6.0,72,0.00,,,0.00,WeatherCatV1.02B3,2013-03-05 03:09:00,
2013-03-04 22:14:00,30.2,22.3,29.82,SSE,155,2.0,5.0,72,0.00,,,0.00,WeatherCatV1.02B3,2013-03-05 03:14:00,
2013-03-04 22:19:00,30.3,22.0,29.82,SSE,155,6.0,7.0,71,0.00,,,0.00,WeatherCatV1.02B3,2013-03-05 03:19:00,
2013-03-04 22:24:00,30.3,22.4,29.83,SSE,155,4.0,7.0,72,0.00,,,0.00,WeatherCatV1.02B3,2013-03-05 03:24:00,
2013-03-04 22:29:00,30.3,22.0,29.82,SSE,155,6.0,8.0,71,0.00,,,0.00,WeatherCatV1.02B3,2013-03-05 03:29:00,
2013-03-04 22:34:00,30.5,22.2,29.83,SSE,154,1.0,7.0,71,0.00,,,0.00,WeatherCatV1.02B3,2013-03-05 03:34:00,
2013-03-04 22:39:00,30.6,22.3,29.83,SSE,153,1.0,11.0,71,0.00,,,0.00,WeatherCatV1.02B3,2013-03-05 03:39:00,
2013-03-04 22:44:00,30.6,22.3,29.83,SSE,154,6.0,7.0,71,0.00,,,0.00,WeatherCatV1.02B3,2013-03-05 03:44:00,
2013-03-04 22:49:00,30.5,22.2,29.83,SSE,152,0.0,14.0,71,0.00,,,0.00,WeatherCatV1.02B3,2013-03-05 03:49:00,
2013-03-04 22:54:00,30.5,22.2,29.83,SSE,153,3.0,14.0,71,0.00,,,0.00,WeatherCatV1.02B3,2013-03-05 03:54:00,
2013-03-04 22:59:00,30.4,22.1,29.83,SSE,153,2.0,6.0,71,0.00,,,0.00,WeatherCatV1.02B3,2013-03-05 03:59:00,
2013-03-04 23:04:00,30.3,22.0,29.83,SSE,155,4.0,13.0,71,0.00,,,0.00,WeatherCatV1.02B3,2013-03-05 04:04:00,
2013-03-04 23:09:00,30.2,21.9,29.83,SSE,155,3.0,5.0,71,0.00,,,0.00,WeatherCatV1.02B3,2013-03-05 04:09:00,
2013-03-04 23:14:00,30.2,22.3,29.83,SSE,155,2.0,4.0,72,0.00,,,0.00,WeatherCatV1.02B3,2013-03-05 04:14:00,
2013-03-04 23:19:00,30.1,22.2,29.83,SSE,155,1.0,5.0,72,0.00,,,0.00,WeatherCatV1.02B3,2013-03-05 04:19:00,
2013-03-04 23:24:00,30.2,22.3,29.84,SSE,155,1.0,8.0,72,0.00,,,0.00,WeatherCatV1.02B3,2013-03-05 04:24:00,
2013-03-04 23:29:00,30.1,22.2,29.84,SSE,155,5.0,6.0,72,0.00,,,0.00,WeatherCatV1.02B3,2013-03-05 04:29:00,
2013-03-04 23:34:00,30.0,22.1,29.84,SSE,155,1.0,6.0,72,0.00,,,0.00,WeatherCatV1.02B3,2013-03-05 04:34:00,
2013-03-04 23:39:00,29.9,22.0,29.84,SSE,155,1.0,6.0,72,0.00,,,0.00,WeatherCatV1.02B3,2013-03-05 04:39:00,
2013-03-04 23:44:00,29.9,22.0,29.84,SSE,155,4.0,10.0,72,0.00,,,0.00,WeatherCatV1.02B3,2013-03-05 04:44:00,
2013-03-04 23:49:00,29.8,21.9,29.84,SSE,153,0.0,5.0,72,0.00,,,0.00,WeatherCatV1.02B3,2013-03-05 04:49:00,
2013-03-04 23:54:00,29.7,21.8,29.84,SSE,153,1.0,8.0,72,0.00,,,0.00,WeatherCatV1.02B3,2013-03-05 04:54:00,
2013-03-04 23:59:00,29.7,21.8,29.84,SSE,155,5.0,9.0,72,0.00,,,0.00,WeatherCatV1.02B3,2013-03-05 04:59:00,